Regional Weather Roundup
Issued by NWS

Home | Current Version | Previous Version | Text Only | Print | Product List | Glossary Off
Versions: 1 2 3 4 5 6 7 8 9 10 11 12 13 14 15 16 17 18 19 20 21 22 23 24 25 26 27 28 29 30 31 32 33 34 35 36 37 38 39 40 41 42 43 44 45 46 47 48 49 50

000
ASUS45 KABQ 170701
RWRNM
WEATHER ROUNDUP FOR NEW MEXICO
NATIONAL WEATHER SERVICE ALBUQUERQUE NM
100 AM MDT WED SEP 17 2014

NOTE: "FAIR" MEANS FEW OR NO CLOUDS BELOW 12,000 FEET AGL WITH NO
       SIGNIFICANT WEATHER OR OBSTRUCTIONS TO VISION.

      THIS PRODUCT IS RELEASED AS TWO VERSIONS.  ONE VERSION NEAR
      THE TOP OF THE HOUR CONTAINING PRELIMINARY DATA FROM ALBUQUERQUE
      AND OTHER STATIONS.  A FINAL VERSION WITH ADDITIONAL DATA IS
      ISSUED ABOUT 10 MINUTES AFTER THE HOUR.

NMZ501-503-504-510>518-170800-
NORTHWEST PLATEAU/NORTHCENTRAL MOUNTAINS

CITY           SKY/WX    TMP DP  RH WIND       PRES   REMARKS
FARMINGTON     CLEAR     67  49  52 E8        30.16S
LOS ALAMOS     CLOUDY    55  55  98 CALM      30.30S
SANTA FE       CLOUDY    58  52  80 SW5       30.26S
ANGEL FIRE     FAIR      41  38  87 CALM      30.39S

$$
NMZ402-403-502-505>509-170800-
WESTCENTRAL MOUNTAINS/SOUTHWEST MOUNTAINS

CITY           SKY/WX    TMP DP  RH WIND       PRES   REMARKS
GALLUP         CLOUDY    60  51  72 CALM      30.25S
GRANTS         CLOUDY    57  52  82 SE6       30.28S
SILVER CITY    RAIN      64  63  94 CALM      30.20R

$$
NMZ407-409-411-412-170800-
SOUTHERN DESERTS

CITY           SKY/WX    TMP DP  RH WIND       PRES   REMARKS
LORDSBURG      CLOUDY    64  63  94 S7        30.09F
DEMING         RAIN      65  63  93 NE14      30.12R FOG
LAS CRUCES     CLOUDY    67  64  90 NW5       30.12F
HOLLOMAN AFB   CLOUDY    65  65 100 CALM      30.11F
ALAMOGORDO     CLOUDY    64  64 100 CALM      30.13S
T OR C         LGT RAIN  64  62  93 N3        30.15F

$$
NMZ519>523-170800-
CENTRAL VALLEYS/CENTRAL HIGHLANDS

CITY           SKY/WX    TMP DP  RH WIND       PRES   REMARKS
ALBUQUERQUE    CLOUDY    61  54  77 SE5       30.22F
DOUBLE EAGLE   CLOUDY    59  56  88 SE6       30.24F
CLINES CORNERS CLOUDY    55  50  83 W9        30.28S
BELEN          DRIZZLE   60  58  94 NE3       30.21F
SOCORRO        DRIZZLE   63  62  96 CALM      30.18S

$$
NMZ524>526-539-540-170800-
SOUTHCENTRAL MOUNTAINS

CITY           SKY/WX    TMP DP  RH WIND       PRES   REMARKS
RUIDOSO        NOT AVBL

$$
NMZ527>531-170800-
NORTHEAST HIGHLANDS/NORTHEAST PLAINS

CITY           SKY/WX    TMP DP  RH WIND       PRES   REMARKS
LAS VEGAS      MOCLDY    54  49  83 S7        30.26S
RATON          MOCLDY    56  53  90 N5        30.22F
CLAYTON        PTCLDY    62  57  83 W13       30.11F

$$
NMZ532>537-170800-
EASTCENTRAL PLAINS

CITY           SKY/WX    TMP DP  RH WIND       PRES   REMARKS
TUCUMCARI      MOCLDY    64  59  83 SW7       30.11S
CANNON AFB     MOCLDY    64  61  88 W7        30.15F
CLOVIS AIRPORT   N/A     64  61  88 SW8       30.16F

$$
NMZ028-029-538-170800-
SOUTHEAST PLAINS

CITY           SKY/WX    TMP DP  RH WIND       PRES   REMARKS
ROSWELL        CLOUDY    66  65  96 SW3       30.12F FOG
CARLSBAD       MOCLDY    69  32  25 NW3       30.09F
HOBBS          CLOUDY    66  66 100 E3        30.13F


$$



USA.gov is the U.S. government's official web portal to all federal, state and local government web resources and services.